Date,TemperatureHighF,TemperatureAvgF,TemperatureLowF,DewpointHighF,DewpointAvgF,DewpointLowF,HumidityHigh,HumidityAvg,HumidityLow,PressureMaxIn,PressureMinIn,WindSpeedMaxMPH,WindSpeedAvgMPH,GustSpeedMaxMPH,PrecipitationSumIn
2013-2-1,-200,0,200,-100,-100,-100,0,0,100,0.00,40.00,14,6,17,0.00
2013-2-2,-200,0,200,-100,-100,-100,0,0,100,0.00,40.00,17,8,20,0.00
2013-2-3,-200,0,200,-100,-100,-100,0,0,100,0.00,40.00,21,9,26,0.00
2013-2-4,-200,0,200,-100,-100,-100,0,0,100,0.00,40.00,14,6,17,0.00
2013-2-5,-200,0,200,-100,-100,-100,0,0,100,0.00,40.00,23,9,31,0.00
2013-2-6,-200,0,200,-100,-100,-100,0,0,100,0.00,40.00,13,6,21,0.00
2013-2-7,11,0,11,-100,-100,-100,0,0,100,30.27,30.27,12,9,17,0.00
2013-2-8,-200,0,200,-100,-100,-100,0,0,100,0.00,40.00,11,8,15,0.00
2013-2-9,-200,0,200,-100,-100,-100,0,0,100,0.00,40.00,13,6,18,0.00
2013-2-10,-200,0,200,-100,-100,-100,0,0,100,0.00,40.00,22,12,32,0.00
2013-2-11,35,1,35,-100,-100,-100,0,0,100,29.34,29.34,31,-21,40,0.00
2013-2-12,22,3,18,-100,-100,-100,0,0,100,29.83,29.82,23,-156,27,0.00
2013-2-13,30,8,-15,-100,-100,-100,0,0,100,29.81,29.66,44,-283,44,0.00
2013-2-14,30,1,30,-100,-100,-100,0,0,100,29.67,29.67,17,8,25,0.00
2013-2-15,15,0,15,-100,-100,-100,0,0,100,30.03,30.03,15,10,20,0.00
2013-2-16,-200,0,200,-100,-100,-100,0,0,100,0.00,40.00,13,7,16,0.00
2013-2-17,-200,0,200,-100,-100,-100,0,0,100,0.00,40.00,9,4,11,0.00
2013-2-18,-200,0,200,-100,-100,-100,0,0,100,0.00,40.00,21,12,32,0.00
2013-2-19,32,1,32,-100,-100,-100,0,0,100,29.19,29.19,31,-9,41,0.00
2013-2-20,-200,0,200,-100,-100,-100,0,0,100,0.00,40.00,20,14,25,0.00
2013-2-21,16,1,14,-100,-100,-100,0,0,100,30.41,30.39,16,6,19,0.00
2013-2-22,15,1,12,-100,-100,-100,0,0,100,30.34,30.16,15,10,21,0.00
2013-2-23,-200,0,200,-100,-100,-100,0,0,100,0.00,40.00,11,4,16,0.00
2013-2-24,-200,0,200,-100,-100,-100,0,0,100,0.00,40.00,13,7,15,0.00
2013-2-25,30,1,30,-100,-100,-100,0,0,100,30.18,30.18,5,3,9,0.00
2013-2-26,31,2,29,-100,-100,-100,0,0,100,30.18,30.14,14,8,20,0.00
2013-2-27,-200,0,200,-100,-100,-100,0,0,100,0.00,40.00,21,14,26,0.00
2013-2-28,-200,0,200,-100,-100,-100,0,0,100,0.00,40.00,26,18,31,0.00